time, Switch, Flow(0), Analog(2)
yyyy/mm/dd HH:MM:SS.fff, True=FILTERED|False=TOTAL, L/min, V
2023/06/20 11:00:03.012, True, 4.708, 0.128405
2023/06/20 11:00:03.516, True, 4.310, 0.129244
2023/06/20 11:00:04.020, True, 3.980, 0.129320
2023/06/20 11:00:04.516, True, 2.696, 0.129015
2023/06/20 11:00:05.020, True, 1.990, 0.129702
2023/06/20 11:00:05.524, True, 1.990, 0.130236
2023/06/20 11:00:06.028, True, 1.989, 0.128023
2023/06/20 11:00:06.524, True, 1.685, 0.127260
2023/06/20 11:00:07.028, True, 1.990, 0.128786
2023/06/20 11:00:07.524, True, 1.685, 0.130236
2023/06/20 11:00:08.028, True, 1.989, 0.129091
2023/06/20 11:00:08.532, True, 1.990, 0.127260
2023/06/20 11:00:09.028, True, 1.685, 0.129473
2023/06/20 11:00:09.532, True, 1.658, 0.128023
2023/06/20 11:00:10.036, True, 1.991, 0.128862
2023/06/20 11:00:10.532, True, 1.684, 0.131075
2023/06/20 11:00:11.036, True, 1.659, 0.129549
2023/06/20 11:00:11.540, True, 1.989, 0.128557
2023/06/20 11:00:12.036, True, 2.024, 0.129702
2023/06/20 11:00:12.540, True, 1.657, 0.127947
2023/06/20 11:00:13.044, True, 1.990, 0.128786
2023/06/20 11:00:13.540, True, 1.684, 0.128939
2023/06/20 11:00:14.044, True, 1.991, 0.127871
2023/06/20 11:00:14.540, True, 1.684, 0.129244
2023/06/20 11:00:15.044, True, 1.990, 0.128099
2023/06/20 11:00:15.548, True, 1.989, 0.128634
2023/06/20 11:00:16.044, True, 1.686, 0.128176
2023/06/20 11:00:16.549, True, 1.657, 0.126421
2023/06/20 11:00:17.052, True, 1.658, 0.127031
2023/06/20 11:00:17.548, True, 2.021, 0.128710
2023/06/20 11:00:18.052, True, 1.658, 0.129702
2023/06/20 11:00:18.556, True, 1.990, 0.127871
2023/06/20 11:00:19.052, True, 1.685, 0.128328
2023/06/20 11:00:19.555, True, 1.993, 0.131304
2023/06/20 11:00:20.060, True, 1.658, 0.129473
2023/06/20 11:00:20.556, True, 1.681, 0.126421
2023/06/20 11:00:21.060, True, 1.992, 0.128176
2023/06/20 11:00:21.564, True, 1.656, 0.127184
2023/06/20 11:00:22.068, True, 1.990, 0.129854
2023/06/20 11:00:22.564, True, 1.685, 0.129778
2023/06/20 11:00:23.068, True, 1.990, 0.127184
2023/06/20 11:00:23.572, True, 1.658, 0.127871
2023/06/20 11:00:24.068, True, 1.685, 0.129168
2023/06/20 11:00:24.572, True, 1.991, 0.127718
2023/06/20 11:00:25.076, True, 1.657, 0.129244
2023/06/20 11:00:25.572, True, 2.021, 0.129015
2023/06/20 11:00:26.076, True, 1.658, 0.130007
2023/06/20 11:00:26.580, True, 1.990, 0.127489
2023/06/20 11:00:27.076, True, 1.684, 0.129397
2023/06/20 11:00:27.580, True, 1.990, 0.126802
2023/06/20 11:00:28.084, True, 1.659, 0.129168
2023/06/20 11:00:28.580, True, 2.022, 0.127489
2023/06/20 11:00:29.084, True, 1.658, 0.127260
2023/06/20 11:00:29.588, True, 1.988, 0.129473
2023/06/20 11:00:30.084, True, 1.685, 0.129091
2023/06/20 11:00:30.588, True, 1.990, 0.128405
2023/06/20 11:00:31.084, True, 1.685, 0.128786
2023/06/20 11:00:31.588, True, 1.992, 0.128328
2023/06/20 11:00:32.092, True, 1.656, 0.127489
2023/06/20 11:00:32.588, True, 2.022, 0.128786
2023/06/20 11:00:33.092, True, 1.991, 0.128099
2023/06/20 11:00:33.596, True, 1.657, 0.129931
2023/06/20 11:00:34.100, True, 1.992, 0.125887
2023/06/20 11:00:34.596, True, 1.683, 0.129015
2023/06/20 11:00:35.100, True, 1.658, 0.130007
2023/06/20 11:00:35.604, True, 1.990, 0.129778
2023/06/20 11:00:36.100, True, 1.684, 0.128939
2023/06/20 11:00:36.604, True, 1.990, 0.129778
2023/06/20 11:00:37.108, True, 1.658, 0.127794
2023/06/20 11:00:37.604, True, 2.022, 0.127947
2023/06/20 11:00:38.108, True, 1.658, 0.128328
2023/06/20 11:00:38.612, True, 1.990, 0.128786
2023/06/20 11:00:39.108, True, 1.684, 0.127260
2023/06/20 11:00:39.612, True, 1.989, 0.130465
2023/06/20 11:00:40.116, True, 1.990, 0.128099
2023/06/20 11:00:40.612, True, 1.687, 0.130388
2023/06/20 11:00:41.116, True, 1.987, 0.129091
2023/06/20 11:00:41.620, True, 1.990, 0.130999
2023/06/20 11:00:42.116, True, 1.685, 0.131075
2023/06/20 11:00:42.620, True, 1.990, 0.132906
2023/06/20 11:00:43.116, True, 1.685, 0.131914
2023/06/20 11:00:43.620, True, 1.990, 0.135958
2023/06/20 11:00:44.124, True, 1.658, 0.133898
2023/06/20 11:00:44.620, True, 2.022, 0.135119
2023/06/20 11:00:45.124, True, 1.658, 0.135042
2023/06/20 11:00:45.628, True, 1.989, 0.133135
2023/06/20 11:00:46.124, True, 1.685, 0.134890
2023/06/20 11:00:46.628, True, 1.658, 0.135958
2023/06/20 11:00:47.124, True, 2.022, 0.133822
2023/06/20 11:00:47.628, True, 1.658, 0.135271
2023/06/20 11:00:48.132, True, 1.658, 0.136645
2023/06/20 11:00:48.636, True, 1.992, 0.136110
2023/06/20 11:00:49.132, True, 1.685, 0.136110
2023/06/20 11:00:49.636, True, 1.987, 0.137407
2023/06/20 11:00:50.140, True, 1.658, 0.136110
2023/06/20 11:00:50.636, True, 2.025, 0.137255
2023/06/20 11:00:51.140, True, 1.655, 0.137865
2023/06/20 11:00:51.644, True, 1.658, 0.139849
2023/06/20 11:00:52.139, True, 2.022, 0.140993
2023/06/20 11:00:52.644, True, 1.657, 0.136950
2023/06/20 11:00:53.140, True, 2.022, 0.141146
2023/06/20 11:00:53.644, True, 1.658, 0.139162
2023/06/20 11:00:54.148, True, 1.990, 0.141833
2023/06/20 11:00:54.644, True, 2.023, 0.138399
2023/06/20 11:00:55.148, True, 1.658, 0.141375
2023/06/20 11:00:55.652, True, 1.989, 0.141070
2023/06/20 11:00:56.148, True, 1.688, 0.140002
2023/06/20 11:00:56.652, True, 1.655, 0.139696
2023/06/20 11:00:57.156, True, 1.991, 0.138018
2023/06/20 11:00:57.660, True, 1.657, 0.141833
2023/06/20 11:00:58.156, True, 2.024, 0.140459
2023/06/20 11:00:58.660, True, 1.656, 0.141985
2023/06/20 11:00:59.164, True, 1.989, 0.140764
2023/06/20 11:00:59.660, True, 1.685, 0.140383
2023/06/20 11:01:00.164, True, 1.658, 0.140459
2023/06/20 11:01:00.668, True, 1.990, 0.139849
2023/06/20 11:01:01.164, True, 1.684, 0.140230
2023/06/20 11:01:01.668, True, 1.659, 0.139849
2023/06/20 11:01:02.172, True, 1.988, 0.140764
2023/06/20 11:01:02.668, True, 1.685, 0.138323
2023/06/20 11:01:03.172, True, 1.989, 0.140764
2023/06/20 11:01:03.668, True, 1.685, 0.139239
2023/06/20 11:01:04.172, True, 1.658, 0.139773
2023/06/20 11:01:04.676, True, 1.990, 0.139620
2023/06/20 11:01:05.172, True, 1.684, 0.139925
2023/06/20 11:01:05.676, True, 1.658, 0.138933
2023/06/20 11:01:06.180, True, 1.991, 0.139086
2023/06/20 11:01:06.684, True, 1.657, 0.139315
2023/06/20 11:01:07.180, True, 2.022, 0.139315
2023/06/20 11:01:07.684, True, 1.658, 0.139544
2023/06/20 11:01:08.188, True, 1.989, 0.138323
2023/06/20 11:01:08.684, True, 1.685, 0.140078
2023/06/20 11:01:09.188, True, 1.989, 0.139620
2023/06/20 11:01:09.692, True, 1.658, 0.142290
2023/06/20 11:01:10.188, True, 2.022, 0.140383
2023/06/20 11:01:10.691, True, 1.661, 0.138857
2023/06/20 11:01:11.197, True, 1.986, 0.139467
2023/06/20 11:01:11.700, True, 1.658, 0.139467
2023/06/20 11:01:12.196, True, 2.026, 0.138094
2023/06/20 11:01:12.700, True, 1.655, 0.141222
2023/06/20 11:01:13.204, True, 1.989, 0.138323
2023/06/20 11:01:13.700, True, 1.688, 0.138247
2023/06/20 11:01:14.204, True, 1.989, 0.137865
2023/06/20 11:01:14.708, True, 1.655, 0.138323
2023/06/20 11:01:15.204, True, 1.685, 0.140307
2023/06/20 11:01:15.708, True, 1.990, 0.138476
2023/06/20 11:01:16.212, True, 1.658, 0.138705
2023/06/20 11:01:16.708, True, 2.021, 0.138399
2023/06/20 11:01:17.212, True, 1.659, 0.140459
2023/06/20 11:01:17.716, True, 1.989, 0.139620
2023/06/20 11:01:18.220, True, 1.658, 0.140154
2023/06/20 11:01:18.716, True, 2.022, 0.138323
2023/06/20 11:01:19.220, True, 1.661, 0.139925
2023/06/20 11:01:19.724, True, 1.657, 0.139773
2023/06/20 11:01:20.220, True, 2.019, 0.138094
2023/06/20 11:01:20.724, True, 1.658, 0.139162
2023/06/20 11:01:21.228, True, 1.989, 0.139315
2023/06/20 11:01:21.724, True, 1.685, 0.140841
2023/06/20 11:01:22.228, True, 1.990, 0.140383
2023/06/20 11:01:22.732, True, 1.657, 0.141451
2023/06/20 11:01:23.228, True, 2.022, 0.140612
2023/06/20 11:01:23.732, True, 1.658, 0.139467
2023/06/20 11:01:24.236, True, 1.989, 0.140002
2023/06/20 11:01:24.732, True, 1.685, 0.139620
2023/06/20 11:01:25.236, True, 1.658, 0.140078
2023/06/20 11:01:25.740, True, 1.991, 0.138094
2023/06/20 11:01:26.236, True, 1.684, 0.138170
2023/06/20 11:01:26.740, True, 1.989, 0.137102
2023/06/20 11:01:27.244, True, 1.660, 0.140917
2023/06/20 11:01:27.740, True, 1.683, 0.139925
2023/06/20 11:01:28.244, True, 1.658, 0.140230
2023/06/20 11:01:28.748, True, 1.658, 0.140307
2023/06/20 11:01:29.244, True, 1.685, 0.139620
2023/06/20 11:01:29.748, True, 1.990, 0.138552
2023/06/20 11:01:30.252, True, 1.658, 0.141756
2023/06/20 11:01:30.756, True, 1.990, 0.137636
2023/06/20 11:01:31.252, True, 1.685, 0.139162
2023/06/20 11:01:31.756, True, 1.659, 0.137865
2023/06/20 11:01:32.260, True, 1.988, 0.138552
2023/06/20 11:01:32.756, True, 1.685, 0.139773
2023/06/20 11:01:33.259, True, 1.989, 0.141146
2023/06/20 11:01:33.756, True, 1.687, 0.138781
2023/06/20 11:01:34.260, True, 1.987, 0.140459
2023/06/20 11:01:34.764, True, 1.660, 0.139162
2023/06/20 11:01:35.268, True, 1.987, 0.139467
2023/06/20 11:01:35.763, True, 1.685, 0.138628
2023/06/20 11:01:36.268, True, 1.657, 0.137942
2023/06/20 11:01:36.772, True, 1.990, 0.138781
2023/06/20 11:01:37.267, True, 1.688, 0.140154
2023/06/20 11:01:37.772, True, 1.986, 0.140917
2023/06/20 11:01:38.276, True, 1.658, 0.137484
2023/06/20 11:01:38.772, True, 2.025, 0.137255
2023/06/20 11:01:39.276, True, 1.657, 0.136721
2023/06/20 11:01:39.779, True, 1.656, 0.138628
2023/06/20 11:01:40.276, True, 2.023, 0.141375
2023/06/20 11:01:40.780, True, 1.659, 0.139315
2023/06/20 11:01:41.276, True, 2.020, 0.138705
2023/06/20 11:01:41.780, True, 1.658, 0.137026
2023/06/20 11:01:42.283, True, 1.992, 0.140078
2023/06/20 11:01:42.788, True, 1.656, 0.138399
2023/06/20 11:01:43.284, True, 2.022, 0.138933
2023/06/20 11:01:43.787, True, 1.658, 0.139849
2023/06/20 11:01:44.292, True, 1.990, 0.139239
2023/06/20 11:01:44.788, True, 1.684, 0.140307
2023/06/20 11:01:45.292, True, 1.992, 0.140612
2023/06/20 11:01:45.796, True, 1.656, 0.140459
2023/06/20 11:01:46.292, True, 2.022, 0.137560
2023/06/20 11:01:46.796, True, 1.658, 0.139696
2023/06/20 11:01:47.299, True, 1.992, 0.138476
2023/06/20 11:01:47.804, True, 1.656, 0.137865
2023/06/20 11:01:48.299, True, 1.688, 0.137331
2023/06/20 11:01:48.804, True, 1.987, 0.137407
2023/06/20 11:01:49.308, True, 1.657, 0.137560
2023/06/20 11:01:49.804, True, 1.685, 0.138018
2023/06/20 11:01:50.307, True, 1.992, 0.139925
2023/06/20 11:01:50.812, True, 1.656, 0.138247
2023/06/20 11:01:51.308, True, 2.022, 0.139391
2023/06/20 11:01:51.812, True, 1.660, 0.139086
2023/06/20 11:01:52.316, True, 1.988, 0.136187
2023/06/20 11:01:52.812, True, 1.687, 0.138781
2023/06/20 11:01:53.316, True, 1.987, 0.139315
2023/06/20 11:01:53.820, True, 1.659, 0.139696
2023/06/20 11:01:54.316, True, 1.685, 0.136873
2023/06/20 11:01:54.819, True, 1.988, 0.137865
2023/06/20 11:01:55.324, True, 1.659, 0.139544
2023/06/20 11:01:55.820, True, 2.022, 0.139620
2023/06/20 11:01:56.324, True, 1.656, 0.138857
2023/06/20 11:01:56.827, True, 1.660, 0.137484
2023/06/20 11:01:57.323, True, 2.023, 0.137636
2023/06/20 11:01:57.828, True, 1.658, 0.138094
2023/06/20 11:01:58.332, True, 1.986, 0.137484
2023/06/20 11:01:58.836, True, 1.658, 0.140154
2023/06/20 11:01:59.332, True, 2.024, 0.137789
2023/06/20 11:01:59.835, True, 1.658, 0.140078
2023/06/20 11:02:00.340, True, 1.659, 0.137789
2023/06/20 11:02:00.836, True, 1.683, 0.139010
2023/06/20 11:02:01.340, True, 1.988, 0.136187
2023/06/20 11:02:01.844, True, 1.658, 0.137865
2023/06/20 11:02:02.340, True, 1.685, 0.137102
2023/06/20 11:02:02.844, True, 1.990, 0.138705
2023/06/20 11:02:03.348, True, 1.659, 0.137102
2023/06/20 11:02:03.844, True, 2.021, 0.137484
2023/06/20 11:02:04.348, True, 1.992, 0.134661
2023/06/20 11:02:04.852, True, 1.656, 0.137713
2023/06/20 11:02:05.356, True, 1.990, 0.137102
2023/06/20 11:02:05.852, True, 1.687, 0.137560
2023/06/20 11:02:06.356, True, 1.658, 0.138705
2023/06/20 11:02:06.860, True, 1.987, 0.137789
2023/06/20 11:02:07.356, True, 1.685, 0.138247
2023/06/20 11:02:07.860, True, 1.989, 0.137484
2023/06/20 11:02:08.364, True, 1.658, 0.137255
2023/06/20 11:02:08.860, True, 2.022, 0.137331
2023/06/20 11:02:09.364, True, 1.658, 0.136416
2023/06/20 11:02:09.868, True, 1.658, 0.137789
2023/06/20 11:02:10.364, True, 2.024, 0.138094
2023/06/20 11:02:10.868, True, 1.657, 0.138857
2023/06/20 11:02:11.372, True, 1.658, 0.135500
2023/06/20 11:02:11.868, True, 1.685, 0.137255
2023/06/20 11:02:12.371, True, 1.990, 0.138399
2023/06/20 11:02:12.875, True, 1.658, 0.138323
2023/06/20 11:02:13.372, True, 2.021, 0.137026
2023/06/20 11:02:13.876, True, 1.658, 0.137713
2023/06/20 11:02:14.380, True, 1.659, 0.137942
2023/06/20 11:02:14.884, True, 1.988, 0.139315
2023/06/20 11:02:15.380, True, 1.685, 0.136721
2023/06/20 11:02:15.884, True, 1.993, 0.137102
2023/06/20 11:02:16.388, True, 1.655, 0.138552
2023/06/20 11:02:16.884, True, 2.022, 0.137789
2023/06/20 11:02:17.388, True, 1.659, 0.138781
2023/06/20 11:02:17.892, True, 1.988, 0.138018
2023/06/20 11:02:18.388, True, 1.685, 0.136721
2023/06/20 11:02:18.892, True, 1.659, 0.137865
2023/06/20 11:02:19.395, True, 1.988, 0.138628
2023/06/20 11:02:19.892, True, 1.687, 0.136721
2023/06/20 11:02:20.396, True, 1.990, 0.135882
2023/06/20 11:02:20.900, True, 1.655, 0.137484
2023/06/20 11:02:21.396, True, 2.022, 0.135195
2023/06/20 11:02:21.900, True, 1.658, 0.136416
2023/06/20 11:02:22.396, True, 2.021, 0.135576
2023/06/20 11:02:22.900, True, 1.658, 0.137179
2023/06/20 11:02:23.404, True, 1.992, 0.135805
2023/06/20 11:02:23.908, True, 1.656, 0.137865
2023/06/20 11:02:24.403, True, 1.687, 0.136339
2023/06/20 11:02:24.908, True, 1.987, 0.137789
2023/06/20 11:02:25.412, True, 1.658, 0.137255
2023/06/20 11:02:25.908, True, 1.685, 0.134966
2023/06/20 11:02:26.412, True, 1.990, 0.137102
2023/06/20 11:02:26.916, True, 1.658, 0.135958
2023/06/20 11:02:27.412, True, 1.685, 0.136416
2023/06/20 11:02:27.916, True, 1.990, 0.136568
2023/06/20 11:02:28.420, True, 1.989, 0.137331
2023/06/20 11:02:28.915, True, 1.685, 0.138628
2023/06/20 11:02:29.420, True, 1.658, 0.135576
2023/06/20 11:02:29.924, True, 1.990, 0.136568
2023/06/20 11:02:30.420, True, 1.685, 0.136263
2023/06/20 11:02:30.924, True, 1.994, 0.138552
2023/06/20 11:02:31.427, True, 1.654, 0.135653
2023/06/20 11:02:31.932, True, 1.990, 0.135958
2023/06/20 11:02:32.428, True, 1.685, 0.134585
2023/06/20 11:02:32.932, True, 1.992, 0.137560
2023/06/20 11:02:33.435, True, 1.656, 0.136339
2023/06/20 11:02:33.932, True, 2.022, 0.137713
2023/06/20 11:02:34.436, True, 1.658, 0.136263
2023/06/20 11:02:34.940, True, 1.990, 0.138781
2023/06/20 11:02:35.435, True, 1.688, 0.136187
2023/06/20 11:02:35.940, True, 1.986, 0.135576
2023/06/20 11:02:36.444, True, 1.658, 0.134890
2023/06/20 11:02:36.940, True, 1.685, 0.134813
2023/06/20 11:02:37.444, True, 1.990, 0.135805
2023/06/20 11:02:37.948, True, 1.658, 0.136339
2023/06/20 11:02:38.452, True, 1.989, 0.136950
2023/06/20 11:02:38.948, True, 1.689, 0.135271
2023/06/20 11:02:39.452, True, 1.988, 0.136187
2023/06/20 11:02:39.956, True, 1.659, 0.134966
2023/06/20 11:02:40.460, True, 1.988, 0.137942
2023/06/20 11:02:40.956, True, 1.686, 0.135195
2023/06/20 11:02:41.460, True, 1.987, 0.138094
2023/06/20 11:02:41.964, True, 1.989, 0.137255
2023/06/20 11:02:42.460, True, 1.685, 0.136492
2023/06/20 11:02:42.964, True, 1.989, 0.135119
2023/06/20 11:02:43.468, True, 1.658, 0.137407
2023/06/20 11:02:43.964, True, 2.022, 0.136339
2023/06/20 11:02:44.468, True, 1.659, 0.136339
2023/06/20 11:02:44.972, True, 1.657, 0.133898
2023/06/20 11:02:45.468, True, 2.022, 0.136263
2023/06/20 11:02:45.972, True, 1.659, 0.136645
2023/06/20 11:02:46.476, True, 1.988, 0.134585
2023/06/20 11:02:46.972, True, 1.685, 0.136568
2023/06/20 11:02:47.476, True, 1.990, 0.136110
2023/06/20 11:02:47.980, True, 1.658, 0.134508
2023/06/20 11:02:48.476, True, 2.021, 0.132830
2023/06/20 11:02:48.980, True, 1.660, 0.134737
2023/06/20 11:02:49.484, True, 1.656, 0.134890
2023/06/20 11:02:49.988, True, 1.990, 0.134813
2023/06/20 11:02:50.484, True, 1.687, 0.134966
2023/06/20 11:02:50.988, True, 1.656, 0.134508
2023/06/20 11:02:51.492, True, 1.989, 0.136110
2023/06/20 11:02:51.988, True, 1.685, 0.138094
2023/06/20 11:02:52.492, True, 1.989, 0.136110
2023/06/20 11:02:52.996, True, 1.990, 0.134432
2023/06/20 11:02:53.491, True, 1.688, 0.136034
2023/06/20 11:02:53.996, True, 1.986, 0.134432
2023/06/20 11:02:54.500, True, 1.658, 0.137179
2023/06/20 11:02:54.996, True, 2.022, 0.133364
2023/06/20 11:02:55.500, True, 1.657, 0.136492
2023/06/20 11:02:56.004, True, 1.658, 0.136568
2023/06/20 11:02:56.500, True, 2.022, 0.135042
2023/06/20 11:02:57.004, True, 1.658, 0.135271
2023/06/20 11:02:57.500, True, 2.022, 0.136645
2023/06/20 11:02:58.004, True, 1.658, 0.135882
2023/06/20 11:02:58.508, True, 1.989, 0.135042
2023/06/20 11:02:59.004, True, 1.685, 0.137255
2023/06/20 11:02:59.508, True, 1.657, 0.136492
2023/06/20 11:03:00.011, True, 1.658, 0.136492
2023/06/20 11:03:00.508, True, 1.685, 0.136645
2023/06/20 11:03:01.012, True, 1.658, 0.132525
2023/06/20 11:03:01.516, True, 1.989, 0.136416
2023/06/20 11:03:02.012, True, 1.685, 0.136645
2023/06/20 11:03:02.516, True, 1.658, 0.134661
2023/06/20 11:03:03.012, True, 2.022, 0.134737
2023/06/20 11:03:03.516, True, 1.659, 0.135882
2023/06/20 11:03:04.020, True, 1.989, 0.135653
2023/06/20 11:03:04.516, True, 1.684, 0.136873
2023/06/20 11:03:05.019, True, 1.660, 0.135576
2023/06/20 11:03:05.523, True, 1.987, 0.136416
2023/06/20 11:03:06.028, True, 1.658, 0.132296
2023/06/20 11:03:06.524, True, 2.021, 0.137102
2023/06/20 11:03:07.027, True, 1.660, 0.133288
2023/06/20 11:03:07.532, True, 1.990, 0.138018
2023/06/20 11:03:08.035, True, 1.987, 0.134432
2023/06/20 11:03:08.531, True, 1.685, 0.133288
2023/06/20 11:03:09.036, True, 1.658, 0.134432
2023/06/20 11:03:09.539, True, 1.989, 0.133593
2023/06/20 11:03:10.036, True, 1.685, 0.135653
2023/06/20 11:03:10.540, True, 1.989, 0.136110
2023/06/20 11:03:11.044, True, 1.659, 0.134508
2023/06/20 11:03:11.540, True, 2.021, 0.134585
2023/06/20 11:03:12.044, True, 1.658, 0.134127
2023/06/20 11:03:12.548, True, 1.990, 0.132677
2023/06/20 11:03:13.044, True, 1.685, 0.135882
2023/06/20 11:03:13.548, True, 1.993, 0.133822
2023/06/20 11:03:14.052, True, 1.655, 0.136339
2023/06/20 11:03:14.547, True, 1.684, 0.137560
2023/06/20 11:03:15.052, True, 1.991, 0.136416
2023/06/20 11:03:15.556, True, 1.991, 0.136034
2023/06/20 11:03:16.052, True, 1.683, 0.137255
2023/06/20 11:03:16.556, True, 1.992, 0.133364
2023/06/20 11:03:17.059, True, 1.657, 0.137560
2023/06/20 11:03:17.556, True, 2.023, 0.135882
2023/06/20 11:03:18.059, True, 1.657, 0.135653
2023/06/20 11:03:18.564, True, 1.658, 0.135348
2023/06/20 11:03:19.059, True, 2.023, 0.134737
2023/06/20 11:03:19.564, True, 1.657, 0.136034
2023/06/20 11:03:20.068, True, 1.659, 0.135042
2023/06/20 11:03:20.563, True, 2.024, 0.133669
2023/06/20 11:03:21.068, True, 1.654, 0.134432
2023/06/20 11:03:21.564, True, 2.022, 0.133669
2023/06/20 11:03:22.068, True, 1.660, 0.136721
2023/06/20 11:03:22.572, True, 1.987, 0.135195
2023/06/20 11:03:23.068, True, 1.686, 0.134508
2023/06/20 11:03:23.572, True, 1.660, 0.135042
2023/06/20 11:03:24.076, True, 1.990, 0.136950
2023/06/20 11:03:24.580, True, 1.656, 0.137179
2023/06/20 11:03:25.075, True, 1.686, 0.135805
2023/06/20 11:03:25.580, True, 1.988, 0.134127
2023/06/20 11:03:26.084, True, 1.658, 0.134585
2023/06/20 11:03:26.579, True, 2.021, 0.135653
2023/06/20 11:03:27.084, True, 1.658, 0.135195
2023/06/20 11:03:27.588, True, 1.989, 0.132906
2023/06/20 11:03:28.084, True, 1.686, 0.134051
2023/06/20 11:03:28.588, True, 1.989, 0.133593
2023/06/20 11:03:29.092, True, 1.659, 0.134508
2023/06/20 11:03:29.588, True, 1.684, 0.134737
2023/06/20 11:03:30.092, True, 1.990, 0.135958
2023/06/20 11:03:30.596, True, 1.659, 0.135042
2023/06/20 11:03:31.091, True, 2.021, 0.134508
2023/06/20 11:03:31.596, True, 1.989, 0.133745
2023/06/20 11:03:32.100, True, 1.658, 0.135195
2023/06/20 11:03:32.596, True, 1.685, 0.132753
2023/06/20 11:03:33.100, True, 1.989, 0.136034
2023/06/20 11:03:33.604, True, 1.658, 0.134051
2023/06/20 11:03:34.100, True, 2.022, 0.136034
2023/06/20 11:03:34.604, True, 1.658, 0.133669
2023/06/20 11:03:35.100, True, 2.022, 0.133440
2023/06/20 11:03:35.604, True, 1.658, 0.134966
2023/06/20 11:03:36.108, True, 1.990, 0.133974
2023/06/20 11:03:36.604, True, 1.685, 0.134127
2023/06/20 11:03:37.108, True, 1.990, 0.132982
2023/06/20 11:03:37.612, True, 1.658, 0.135882
2023/06/20 11:03:38.108, True, 2.021, 0.134356
2023/06/20 11:03:38.611, True, 1.658, 0.132448
2023/06/20 11:03:39.115, True, 1.990, 0.132830
2023/06/20 11:03:39.612, True, 1.686, 0.135271
2023/06/20 11:03:40.116, True, 1.657, 0.131914
2023/06/20 11:03:40.620, True, 1.990, 0.134127
2023/06/20 11:03:41.116, True, 1.685, 0.131914
2023/06/20 11:03:41.619, True, 1.993, 0.135348
2023/06/20 11:03:42.124, True, 1.655, 0.133822
2023/06/20 11:03:42.620, True, 2.022, 0.133745
2023/06/20 11:03:43.124, True, 1.658, 0.133822
2023/06/20 11:03:43.620, True, 1.685, 0.132448
2023/06/20 11:03:44.124, True, 1.989, 0.133822
2023/06/20 11:03:44.628, True, 1.661, 0.132525
2023/06/20 11:03:45.124, True, 1.682, 0.134356
2023/06/20 11:03:45.628, True, 1.990, 0.133440
2023/06/20 11:03:46.132, True, 1.657, 0.134432
2023/06/20 11:03:46.628, True, 2.022, 0.134127
2023/06/20 11:03:47.132, True, 1.658, 0.134127
2023/06/20 11:03:47.635, True, 1.989, 0.135119
2023/06/20 11:03:48.140, True, 1.660, 0.134356
2023/06/20 11:03:48.636, True, 1.683, 0.133898
2023/06/20 11:03:49.140, True, 1.989, 0.133822
2023/06/20 11:03:49.636, True, 1.685, 0.134813
2023/06/20 11:03:50.140, True, 1.990, 0.133364
2023/06/20 11:03:50.644, True, 1.658, 0.134661
2023/06/20 11:03:51.140, True, 1.684, 0.131380
2023/06/20 11:03:51.644, True, 1.658, 0.134279
2023/06/20 11:03:52.148, True, 1.658, 0.134508
2023/06/20 11:03:52.644, True, 2.022, 0.134966
2023/06/20 11:03:53.148, True, 1.658, 0.134279
2023/06/20 11:03:53.652, True, 1.993, 0.132906
2023/06/20 11:03:54.148, True, 1.685, 0.131838
2023/06/20 11:03:54.652, True, 1.656, 0.134203
2023/06/20 11:03:55.156, True, 1.656, 0.133440
2023/06/20 11:03:55.660, True, 1.658, 0.134890
2023/06/20 11:03:56.156, True, 1.687, 0.135576
2023/06/20 11:03:56.660, True, 1.986, 0.135119
2023/06/20 11:03:57.164, True, 1.658, 0.135882
2023/06/20 11:03:57.660, True, 1.685, 0.133135
2023/06/20 11:03:58.164, True, 1.990, 0.133059
2023/06/20 11:03:58.668, True, 1.658, 0.133288
2023/06/20 11:03:59.164, True, 2.022, 0.132601
2023/06/20 11:03:59.668, True, 1.658, 0.132296
2023/06/20 11:04:00.172, True, 1.990, 0.134737
2023/06/20 11:04:00.668, True, 1.684, 0.134203
2023/06/20 11:04:01.171, True, 1.658, 0.133593
2023/06/20 11:04:01.676, True, 1.659, 0.132906
2023/06/20 11:04:02.172, True, 1.685, 0.135424
2023/06/20 11:04:02.676, True, 1.989, 0.134356
2023/06/20 11:04:03.179, True, 1.989, 0.132982
2023/06/20 11:04:03.676, True, 1.685, 0.133288
2023/06/20 11:04:04.179, True, 1.990, 0.133059
2023/06/20 11:04:04.684, True, 1.658, 0.133364
2023/06/20 11:04:05.179, True, 2.021, 0.135576
2023/06/20 11:04:05.684, True, 1.658, 0.134661
2023/06/20 11:04:06.188, True, 1.990, 0.133440
2023/06/20 11:04:06.691, True, 1.658, 0.134051
2023/06/20 11:04:07.188, True, 2.025, 0.133974
2023/06/20 11:04:07.692, True, 1.656, 0.132143
2023/06/20 11:04:08.196, True, 1.989, 0.135348
2023/06/20 11:04:08.692, True, 1.686, 0.135424
2023/06/20 11:04:09.196, True, 1.658, 0.132296
2023/06/20 11:04:09.699, True, 1.988, 0.130846
2023/06/20 11:04:10.196, True, 1.686, 0.131533
2023/06/20 11:04:10.700, True, 1.989, 0.133288
2023/06/20 11:04:11.204, True, 1.992, 0.133745
2023/06/20 11:04:11.708, True, 1.656, 0.132906
2023/06/20 11:04:12.204, True, 1.685, 0.135042